Retour au catalogue

SL-16 DEB

ActifSSO
NORAD 25402·DEBRIS·🇷🇺 Russia

Lancé Jul 10, 1998 depuis Baikonur Cosmodrome

Loading…

Prochains Passages (prochaines 24 heures)

TLE

FraisSource: Space-Track

Époque: Sep 14, 2026, 15:46 UTC

1 25402U 98043J   26257.65750176 -.00000032  00000-0  79520-5 0  9990
2 25402  99.2215 318.0876 0153860 115.2976  45.5628 13.96981606435146

Suivez SL-16 DEB en temps réel avec AllMySat

Download on the App Store